Weather reports worldwide

Advertisment
Akron, oh, United States of America (2074227): temperature & dewpoint: 30.05.2020 15:00:00 - 05.06.2020 15:00:00 (EDT)Akron, oh, United States of America (2074227): wind speed & gusts: 30.05.2020 15:00:00 - 05.06.2020 15:00:00 (EDT)Akron, oh, United States of America (2074227): wind direction: 30.05.2020 15:00:00 - 05.06.2020 15:00:00 (EDT)Akron, oh, United States of America (2074227): reduced air pressure: 30.05.2020 15:00:00 - 05.06.2020 15:00:00 (EDT)Akron, oh, United States of America (2074227): visibility: 30.05.2020 15:00:00 - 05.06.2020 15:00:00 (EDT)Akron, oh, United States of America (2074227): precipitation: 30.05.2020 15:00:00 - 05.06.2020 15:00:00 (EDT)
Date & Time tt [°C] td [°C] ff [km/h] ff [kn] fx [km/h] fx [kn] dd ppp [hPa] vv [km] rr [mm]
05.06.2020 15:00:00 - - - - - - - - - -
05.06.2020 14:00:00 27,2 20,6 11 6 - - SSE 1011,3 16 -
05.06.2020 13:00:00 26,1 19,4 0 0 - - N 1011,9 16 -
05.06.2020 12:00:00 24,4 19,4 11 6 - - SW 1012,8 16 -
05.06.2020 11:00:00 22,8 18,9 5 3 - - SW 1012,6 11 -
05.06.2020 10:00:00 21,7 18,9 5 3 - - W 1012,2 10 -
05.06.2020 09:00:00 21,1 18,9 8 4 - - WSW 1012,1 6 -
05.06.2020 08:00:00 21,1 18,9 11 6 - - SW 1011,2 6 -
05.06.2020 07:00:00 20,6 18,3 8 4 - - SW 1011,2 4,8 -
05.06.2020 06:00:00 20,6 18,3 9 5 - - SSW 1010,9 8 -
05.06.2020 05:00:00 20,6 18,3 9 5 - - SSW 1010,7 10 -
05.06.2020 04:00:00 20,6 18,3 9 5 - - SSW 1010,8 6 -
05.06.2020 03:00:00 20,6 18,3 9 5 - - SSW 1010,2 6 -
05.06.2020 02:00:00 20,6 18,3 8 4 - - SSW 1010,2 8 -
05.06.2020 01:00:00 20,0 17,8 8 4 - - S 1010,4 11 -
05.06.2020 00:00:00 19,4 17,2 0 0 - - N 1010,8 11 -
04.06.2020 23:00:00 20,0 17,8 0 0 - - N 1010,6 16 -
04.06.2020 22:00:00 20,6 17,8 8 4 - - S 1010,5 16 -
04.06.2020 21:00:00 20,6 17,2 8 4 - - S 1010,2 16 -
04.06.2020 20:00:00 21,7 17,2 0 0 - - N 1010,0 16 -
04.06.2020 19:00:00 22,2 17,2 11 6 - - SW 1009,5 16 -
04.06.2020 18:00:00 22,8 18,3 11 6 - - S 1009,2 16 -
04.06.2020 17:00:00 22,2 18,3 15 8 - - SSW 1009,4 16 0,0
04.06.2020 16:00:00 20,0 17,2 8 4 48 26 S 1010,1 16 0,0
04.06.2020 15:00:00 21,7 18,3 39 21 48 26 SW 1010,2 6 0,3
04.06.2020 14:00:00 23,3 18,9 0 0 - - N 1009,6 16 4,6
04.06.2020 13:00:00 23,9 18,9 15 8 - - S 1009,9 16 0,0
04.06.2020 12:00:00 22,8 18,9 9 5 - - - 1010,9 15 0,0
04.06.2020 11:00:00 22,8 18,3 13 7 - - S 1010,5 16 -
04.06.2020 10:00:00 22,2 18,3 8 4 - - S 1010,5 16 0,0
04.06.2020 09:00:00 21,7 17,8 0 0 - - N 1010,4 16 0,0
04.06.2020 08:00:00 21,1 17,8 13 7 - - SW 1010,5 16 -
04.06.2020 07:00:00 19,4 16,1 0 0 - - N 1009,9 16 -
04.06.2020 06:00:00 18,3 15,0 0 0 - - N 1009,6 16 -
04.06.2020 05:00:00 17,8 15,0 0 0 - - N 1009,3 16 -
04.06.2020 04:00:00 17,8 14,4 0 0 - - N 1009,5 16 -
04.06.2020 03:00:00 18,9 13,9 0 0 - - N 1009,6 16 -
04.06.2020 02:00:00 18,3 13,9 5 3 - - SSW 1009,6 16 -
04.06.2020 01:00:00 18,9 14,4 0 0 - - N 1009,6 16 -
04.06.2020 00:00:00 19,4 13,9 0 0 - - N 1009,2 16 -
03.06.2020 23:00:00 22,8 13,3 0 0 - - N 1009,0 16 -
03.06.2020 22:00:00 23,9 12,8 0 0 - - N 1009,0 16 -
03.06.2020 21:00:00 25,6 13,3 15 8 - - NNW 1008,0 16 -
03.06.2020 20:00:00 28,3 13,9 11 6 - - WNW 1007,2 16 -
03.06.2020 19:00:00 28,9 13,3 15 8 - - WNW 1006,9 16 -
03.06.2020 18:00:00 29,4 14,4 29 16 - - WNW 1006,9 16 -
03.06.2020 17:00:00 28,9 16,1 29 16 50 27 W 1006,9 16 -
03.06.2020 16:00:00 28,9 16,7 31 17 48 26 W 1007,2 16 -
03.06.2020 15:00:00 30,0 16,1 37 20 50 27 W 1007,2 16 -
03.06.2020 14:00:00 30,6 16,7 34 18 50 27 W 1007,1 16 -
03.06.2020 13:00:00 30,0 17,2 31 17 - - WSW 1007,2 16 -
03.06.2020 12:00:00 28,9 17,2 28 15 48 26 W 1007,0 16 -
03.06.2020 11:00:00 27,8 17,8 26 14 - - W 1007,5 16 -
03.06.2020 10:00:00 26,7 16,7 21 11 - - W 1007,5 16 -
03.06.2020 09:00:00 25,6 16,1 18 10 - - WSW 1007,2 16 -
03.06.2020 08:00:00 23,9 15,0 16 9 - - WSW 1008,2 16 -
03.06.2020 07:00:00 23,9 14,4 16 9 - - SW 1008,0 16 -
03.06.2020 06:00:00 23,3 14,4 11 6 - - W 1008,5 16 -
03.06.2020 05:00:00 25,0 13,9 22 12 - - W 1008,1 16 -
03.06.2020 04:00:00 25,0 13,3 16 9 - - WSW 1007,9 16 -
03.06.2020 03:00:00 25,0 12,8 15 8 - - WSW 1008,3 16 -
03.06.2020 02:00:00 25,0 13,9 15 8 - - SW 1008,7 16 -
03.06.2020 01:00:00 25,6 15,0 18 10 - - WSW 1009,2 16 -
03.06.2020 00:00:00 26,1 16,1 18 10 - - WSW 1009,2 16 -
02.06.2020 23:00:00 27,2 16,1 22 12 - - SW 1009,3 16 -
02.06.2020 22:00:00 27,2 16,7 16 9 - - SW 1009,6 16 -
02.06.2020 21:00:00 27,8 16,7 15 8 - - SW 1009,5 16 -
02.06.2020 20:00:00 29,4 16,7 15 8 - - WSW 1009,7 16 -
02.06.2020 19:00:00 30,6 16,7 22 12 - - WSW 1009,9 16 -
02.06.2020 18:00:00 30,6 16,1 26 14 - - WSW 1010,1 16 -
02.06.2020 17:00:00 30,6 16,7 31 17 - - SW 1010,3 16 -
02.06.2020 16:00:00 30,6 17,2 28 15 - - WSW 1010,9 16 -
02.06.2020 15:00:00 30,0 16,7 22 12 - - W 1011,6 16 -
02.06.2020 14:00:00 27,8 15,6 18 10 - - WSW 1012,4 16 -
02.06.2020 13:00:00 25,0 13,3 16 9 - - WSW 1013,5 16 -
02.06.2020 12:00:00 23,3 11,7 18 10 - - SW 1014,0 16 -
02.06.2020 11:00:00 21,7 9,4 13 7 - - SW 1014,6 16 -
02.06.2020 10:00:00 19,4 8,3 21 11 - - SW 1015,2 16 -
02.06.2020 09:00:00 18,3 8,3 21 11 - - SSW 1015,9 16 -
02.06.2020 08:00:00 17,8 7,8 21 11 - - SSW 1016,3 16 -
02.06.2020 07:00:00 16,1 8,3 16 9 - - S 1017,1 16 -
02.06.2020 06:00:00 15,6 9,4 11 6 - - SSE 1017,6 16 -
02.06.2020 05:00:00 15,6 8,9 5 3 - - - 1018,1 16 0,0
02.06.2020 04:00:00 15,6 9,4 0 0 - - N 1018,2 16 -
02.06.2020 03:00:00 14,4 10,0 8 4 - - S 1018,9 16 0,0
02.06.2020 02:00:00 15,0 8,9 5 3 - - - 1019,8 16 0,0
02.06.2020 01:00:00 16,7 7,8 9 5 - - WSW 1020,6 16 0,0
02.06.2020 00:00:00 17,8 5,0 8 4 - - SSW 1020,0 16 -
01.06.2020 23:00:00 17,8 5,0 9 5 - - SSW 1020,3 16 -
01.06.2020 22:00:00 18,3 5,6 8 4 - - S 1020,3 16 -
01.06.2020 21:00:00 19,4 5,6 8 4 - - SW 1020,7 16 -
01.06.2020 20:00:00 20,6 2,8 11 6 - - SW 1021,1 16 -
01.06.2020 19:00:00 22,2 2,2 18 10 - - WSW 1021,4 16 -
01.06.2020 18:00:00 22,8 2,8 15 8 - - W 1021,9 16 -
01.06.2020 17:00:00 22,8 2,8 16 9 - - W 1022,4 16 -
01.06.2020 16:00:00 22,8 2,8 8 4 - - - 1022,9 16 -
01.06.2020 15:00:00 22,2 4,4 13 7 - - W 1024,1 16 -
01.06.2020 14:00:00 21,7 3,9 18 10 - - W 1025,0 16 -
01.06.2020 13:00:00 20,6 3,9 18 10 - - SW 1025,9 16 -
01.06.2020 12:00:00 19,4 2,8 18 10 - - W 1026,4 16 -
01.06.2020 11:00:00 18,3 5,0 11 6 - - SSW 1026,9 16 -
01.06.2020 10:00:00 16,7 3,3 11 6 - - S 1026,7 16 -
01.06.2020 09:00:00 15,0 4,4 9 5 - - SW 1027,0 16 -
01.06.2020 08:00:00 11,7 5,6 0 0 - - N 1027,1 16 -
01.06.2020 07:00:00 8,9 4,4 0 0 - - N 1026,9 16 -
01.06.2020 06:00:00 6,1 3,3 0 0 - - N 1026,7 16 -
01.06.2020 05:00:00 7,2 3,9 0 0 - - N 1026,7 16 -
01.06.2020 04:00:00 7,8 4,4 0 0 - - N 1026,0 16 -
01.06.2020 03:00:00 7,8 3,9 0 0 - - N 1026,0 15 -
01.06.2020 02:00:00 7,8 3,9 0 0 - - N 1026,0 16 -
01.06.2020 01:00:00 7,8 3,9 0 0 - - N 1026,0 15 -
01.06.2020 00:00:00 10,0 3,9 0 0 - - N 1026,4 16 -
31.05.2020 23:00:00 11,1 3,3 0 0 - - N 1026,5 16 -
31.05.2020 22:00:00 11,7 2,8 8 4 - - N 1026,0 16 -
31.05.2020 21:00:00 12,8 2,2 11 6 - - N 1025,3 16 -
31.05.2020 20:00:00 18,3 6,1 11 6 - - N 1019,1 16 -
31.05.2020 19:00:00 15,6 2,2 13 7 - - NW 1025,0 16 -
31.05.2020 18:00:00 16,1 1,7 15 8 - - N 1024,9 16 -
31.05.2020 17:00:00 16,1 2,2 13 7 - - N 1025,1 16 -
31.05.2020 16:00:00 16,1 1,7 16 9 - - N 1025,2 16 -
31.05.2020 15:00:00 15,6 3,3 16 9 - - N 1025,5 16 -
31.05.2020 14:00:00 15,6 5,0 16 9 - - N 1025,6 16 -
31.05.2020 13:00:00 15,0 5,0 - - - - - 1025,7 16 -
31.05.2020 12:00:00 15,0 5,0 21 11 - - NNE 1025,6 16 -
31.05.2020 11:00:00 15,0 5,0 22 12 - - N 1025,6 16 -
31.05.2020 10:00:00 12,8 4,4 16 9 - - NW 1025,3 16 -
31.05.2020 09:00:00 13,3 6,1 16 9 - - N 1024,9 16 -
31.05.2020 08:00:00 12,8 6,1 15 8 - - N 1024,2 16 -
31.05.2020 07:00:00 11,7 6,1 9 5 - - N 1023,7 16 -
31.05.2020 06:00:00 11,7 7,2 11 6 - - N 1022,6 16 -
31.05.2020 05:00:00 11,7 7,2 9 5 - - NNE 1021,7 16 -
31.05.2020 04:00:00 12,2 7,2 9 5 - - N 1021,6 16 -
31.05.2020 03:00:00 12,2 6,7 5 3 - - N 1021,1 16 -
31.05.2020 02:00:00 12,8 7,8 8 4 - - NE 1021,0 16 -
31.05.2020 01:00:00 12,2 7,8 9 5 - - N 1021,0 16 -
31.05.2020 00:00:00 12,2 8,3 0 0 - - N 1020,5 16 -
30.05.2020 23:00:00 12,8 8,3 0 0 - - N 1020,2 10 -
30.05.2020 22:00:00 15,0 8,9 0 0 - - N 1019,7 16 -
30.05.2020 21:00:00 16,7 6,7 8 4 - - N 1019,1 16 -
30.05.2020 20:00:00 18,3 6,1 11 6 - - N 1019,1 16 -
30.05.2020 19:00:00 18,9 6,1 18 10 - - NNE 1018,7 16 -
30.05.2020 18:00:00 20,0 6,7 16 9 - - NNW 1018,6 16 -
30.05.2020 17:00:00 21,1 7,8 15 8 - - NW 1018,4 16 -
30.05.2020 16:00:00 21,1 8,9 16 9 - - NW 1018,2 16 -
30.05.2020 15:00:00 21,7 8,9 29 16 - - NW 1017,8 16 -

tt = temperature
td = dewpoint
ff = wind speed
fx = gusts
dd = wind direction
ppp = reduced air pressure
vv = visibility
rr = precipitation

Next stations